STARLINK-36719, 67648

Orbit data source: Space-Track

STARLINK-36719, 67648 is a payload satellite owned by SpaceX/Seattle (US) in SSO that was launched on Mon, 02 Feb 2026 UTC via an FALCON 9 launch vehicle from the Air Force Western Test Range (AFWTR). Payload-class satellites include a variety of spacecraft equipped with specific instruments for various scientific and technological missions. These include communications satellites like Starlink; space stations such as the ISS; scientific satellites like the Hubble; Earth observation satellites from companies like Planet Labs, Umbra, and HawkEye 360; GPS; miniature CubeSats for education and research; and military/defense satellites.

Loading next visibility...
Identifier
67648, 2026-022A
Orbit
SSO
Country
Flag of USUS
Related business
Manufacturer
SpaceX/Seattle
Mission
Operational spacecraft
Bus & Motor
STARLINK V2MO, Unknown motor
Mass
575 kg wet, ~530 kg dry
Launch date (UTC)
2026-02-02 (2 months ago)
Launch vehicle
FALCON 9
Launch site
Air Force Western Test Range (AFWTR)
Object type
Payload
Rocket body
Debris
Shape & HBR
Unknown shape, 17.7 m
Radar Cross Section
RCS unknown

Expand to show TLE details & history
Last TLE update: 13 hours ago

TLE from 13 hours ago
0 STARLINK-36719
1 67648U 26022A   26095.08536822  .00023665  00000-0  73280-3 0  9994
2 67648  97.2880 128.9876 0002669  94.3307 265.8241 15.33454075  9618
Epoch: 2026-04-05T02:02Z
TLE epoch observation values (Epoch: 2026-04-05T02:02:55.814Z)
Latitude
0.00002°
Longitude
-95.14081°
Altitude
468.762 km
Speed
7.632 km/s
True Right ascension
08h 35m 57s
True Declination
0° 00' 00"
Sunlit
Object was in full shadow at epoch
Visualization orbit readout
Latitude
Unknown
Longitude
Unknown
Altitude
Unknown
Speed
Unknown
Apparent Right ascension
Unknown
Apparent Declination
Unknown
Sunlit
N/A
Visualization observer readout
Local Sidereal Time
20:59:50
Azimuth
Unknown
Elevation
Unknown
Doppler factor
Unknown
Orbital elements
Apogee altitude
464.285 km
Perigee altitude
460.633 km
Semi-major axis
6,840.596 km
Eccentricity
0.00027
Inclination
97.288°
RAAN
128.9876°
Arg. of periapsis
94.3307°
True anomaly
265.7936°
Mean anomaly
265.8241°
Eccentric anomaly
265.80885°
Mean motion
3.83621 °/min
Orbital period
93.84 mins
BSTAR
0.0007328
Loading maneuver chart data...
Computing Atmospheric mass density...
Loading historical data...
Loading historical data...
Loading historical data...
Loading historical data...
Loading historical data...
Loading historical data...
Loading historical data...

Documentation

Showing up to 5 results
|